GFSMW_prec_pwat_021.txt.gz
Precipitable_Water
0.99 1.05 1.12 1.18 1.21 1.25 1.24 1.20 1.17 1.21 1.23 1.16 1.10 1.11 1.11 1.21 1.32 1.42 1.55 1.71 1.68 1.74 1.81 1.69 1.68 1.63 1.46 1.49 1.59 1.54 1.37 1.26 1.16 1.12 1.12 1.14 1.19 1.12 1.16 1.20 1.14 1.05 1.09
1.08 1.00 1.02 1.08 1.10 1.14 1.19 1.17 1.19 1.16 1.15 1.15 1.17 1.23 1.25 1.35 1.41 1.49 1.51 1.62 1.60 1.61 1.69 1.67 1.63 1.56 1.52 1.56 1.57 1.51 1.36 1.27 1.18 1.05 1.04 0.93 1.02 1.07 1.08 1.12 1.07 1.03 1.00
1.03 0.94 0.94 0.99 1.06 1.07 1.10 1.11 1.15 1.17 1.21 1.26 1.30 1.32 1.38 1.43 1.34 1.37 1.41 1.50 1.55 1.55 1.56 1.59 1.58 1.52 1.62 1.55 1.55 1.54 1.42 1.26 1.13 1.21 1.07 0.92 0.86 1.04 1.12 1.09 1.07 1.05 1.01
1.12 0.99 0.95 0.93 0.97 0.99 1.09 1.11 1.16 1.18 1.24 1.29 1.23 1.18 1.13 1.10 1.20 1.28 1.38 1.43 1.52 1.52 1.55 1.58 1.55 1.57 1.63 1.58 1.57 1.54 1.45 1.34 1.08 1.21 1.25 1.25 1.23 1.04 1.00 1.18 1.16 1.13 1.07
1.14 1.05 0.94 0.93 0.92 1.01 1.04 1.08 1.11 1.15 1.19 1.23 1.21 1.16 1.12 1.21 1.30 1.30 1.32 1.39 1.47 1.55 1.55 1.55 1.53 1.60 1.62 1.64 1.59 1.49 1.41 1.37 1.18 1.11 1.17 1.16 1.18 1.23 1.07 0.96 1.05 1.19 1.22
1.08 1.16 1.11 1.09 1.03 1.10 1.04 1.08 1.09 1.10 1.17 1.21 1.24 1.19 1.14 1.18 1.24 1.24 1.24 1.31 1.35 1.42 1.48 1.51 1.54 1.61 1.61 1.64 1.61 1.52 1.43 1.35 1.23 1.16 1.21 1.18 1.10 1.08 1.06 1.02 1.05 1.04 1.12
1.06 1.09 1.08 1.06 1.06 1.06 1.01 0.98 1.03 1.01 1.11 1.16 1.20 1.21 1.18 1.20 1.18 1.24 1.30 1.26 1.29 1.27 1.32 1.38 1.46 1.54 1.59 1.65 1.65 1.51 1.41 1.35 1.19 1.11 1.15 1.28 1.26 1.26 1.16 1.09 1.04 1.02 1.09
1.03 1.05 1.10 1.10 1.12 1.16 1.16 1.14 1.01 0.97 1.08 1.12 1.13 1.19 1.22 1.23 1.23 1.26 1.27 1.27 1.28 1.27 1.33 1.36 1.44 1.52 1.60 1.66 1.64 1.54 1.45 1.37 1.27 1.16 1.12 1.18 1.26 1.27 1.24 1.17 1.11 1.01 1.03
0.84 0.96 1.06 1.11 1.16 1.19 1.24 1.25 1.22 1.17 1.15 1.12 1.13 1.16 1.24 1.25 1.19 1.22 1.27 1.29 1.36 1.36 1.31 1.33 1.43 1.54 1.55 1.60 1.60 1.49 1.40 1.35 1.30 1.19 1.20 1.16 1.24 1.24 1.21 1.19 1.20 1.11 0.93
0.73 0.90 1.06 1.14 1.16 1.19 1.25 1.32 1.32 1.30 1.37 1.39 1.32 1.21 1.21 1.26 1.30 1.34 1.28 1.28 1.32 1.36 1.32 1.28 1.39 1.48 1.50 1.58 1.58 1.52 1.46 1.33 1.29 1.24 1.22 1.22 1.26 1.25 1.24 1.18 1.15 1.18 1.14
0.69 0.76 0.92 1.09 1.19 1.31 1.30 1.28 1.32 1.36 1.41 1.46 1.46 1.43 1.35 1.37 1.44 1.45 1.43 1.37 1.36 1.39 1.34 1.30 1.32 1.42 1.43 1.53 1.54 1.55 1.50 1.41 1.33 1.30 1.24 1.27 1.33 1.28 1.30 1.24 1.18 1.15 1.21
0.78 0.78 0.83 0.93 1.09 1.19 1.28 1.27 1.29 1.32 1.38 1.46 1.52 1.46 1.48 1.49 1.47 1.48 1.50 1.50 1.33 1.36 1.36 1.32 1.31 1.38 1.46 1.50 1.49 1.49 1.50 1.39 1.32 1.33 1.34 1.28 1.31 1.27 1.30 1.27 1.16 1.12 1.16
0.76 0.78 0.80 0.83 0.88 0.92 1.02 1.24 1.36 1.28 1.33 1.44 1.50 1.53 1.51 1.49 1.46 1.48 1.53 1.56 1.45 1.29 1.34 1.31 1.24 1.35 1.40 1.43 1.48 1.51 1.53 1.44 1.41 1.43 1.47 1.47 1.40 1.28 1.25 1.26 1.21 1.16 1.16
0.58 0.72 0.74 0.75 0.80 0.87 0.92 1.02 1.20 1.39 1.39 1.38 1.42 1.44 1.46 1.45 1.47 1.53 1.52 1.52 1.51 1.33 1.27 1.30 1.25 1.32 1.39 1.40 1.43 1.46 1.51 1.47 1.47 1.53 1.60 1.58 1.59 1.46 1.32 1.29 1.26 1.24 1.17
0.45 0.54 0.58 0.63 0.69 0.76 0.88 1.06 1.11 1.28 1.39 1.38 1.36 1.36 1.46 1.51 1.51 1.54 1.53 1.47 1.51 1.40 1.25 1.25 1.28 1.24 1.33 1.35 1.37 1.40 1.45 1.48 1.47 1.55 1.61 1.60 1.67 1.61 1.55 1.38 1.34 1.28 1.21
0.33 0.40 0.47 0.53 0.61 0.72 0.87 1.04 1.08 1.18 1.33 1.34 1.33 1.38 1.44 1.47 1.43 1.49 1.52 1.54 1.49 1.46 1.28 1.19 1.23 1.18 1.23 1.29 1.32 1.39 1.42 1.47 1.45 1.46 1.54 1.57 1.64 1.68 1.67 1.55 1.48 1.39 1.24
0.27 0.30 0.37 0.45 0.52 0.59 0.70 0.98 1.08 1.25 1.28 1.30 1.43 1.44 1.50 1.50 1.45 1.47 1.50 1.46 1.46 1.49 1.30 1.18 1.22 1.17 1.19 1.24 1.27 1.36 1.41 1.43 1.46 1.45 1.49 1.53 1.65 1.74 1.71 1.68 1.55 1.43 1.36
0.31 0.32 0.34 0.41 0.48 0.60 0.72 0.93 1.18 1.24 1.27 1.35 1.36 1.39 1.43 1.47 1.49 1.46 1.46 1.49 1.53 1.47 1.40 1.22 1.19 1.18 1.18 1.20 1.23 1.31 1.39 1.45 1.47 1.47 1.49 1.56 1.67 1.76 1.72 1.74 1.61 1.48 1.43
0.35 0.36 0.37 0.37 0.47 0.54 0.71 0.87 1.04 1.18 1.27 1.29 1.28 1.31 1.35 1.37 1.46 1.47 1.46 1.51 1.54 1.55 1.49 1.39 1.24 1.16 1.11 1.16 1.21 1.28 1.39 1.42 1.43 1.50 1.52 1.62 1.71 1.82 1.72 1.74 1.60 1.50 1.41
0.39 0.39 0.38 0.41 0.49 0.54 0.71 0.81 0.91 1.00 1.04 1.19 1.24 1.40 1.45 1.45 1.40 1.48 1.56 1.61 1.59 1.53 1.58 1.51 1.37 1.26 1.20 1.21 1.22 1.30 1.39 1.37 1.40 1.47 1.51 1.65 1.78 1.78 1.78 1.72 1.66 1.42 1.28
0.47 0.45 0.46 0.45 0.50 0.62 0.69 0.74 0.85 0.87 1.01 1.16 1.23 1.29 1.35 1.40 1.47 1.52 1.56 1.66 1.64 1.64 1.60 1.57 1.53 1.46 1.30 1.32 1.32 1.38 1.44 1.38 1.37 1.39 1.45 1.68 1.81 1.72 1.75 1.75 1.69 1.46 1.36
0.64 0.61 0.57 0.55 0.60 0.68 0.73 0.75 0.87 1.07 1.17 1.21 1.22 1.26 1.32 1.43 1.53 1.53 1.58 1.61 1.56 1.54 1.59 1.63 1.66 1.62 1.59 1.51 1.37 1.38 1.49 1.47 1.36 1.34 1.50 1.79 1.82 1.80 1.77 1.69 1.63 1.46 1.43
0.75 0.83 0.73 0.65 0.66 0.72 0.79 0.76 0.91 1.12 1.20 1.25 1.27 1.31 1.40 1.49 1.58 1.56 1.54 1.60 1.60 1.42 1.41 1.49 1.56 1.58 1.72 1.78 1.68 1.69 1.55 1.53 1.52 1.55 1.70 1.83 1.85 1.85 1.70 1.59 1.54 1.50 1.42
0.81 0.84 0.84 0.79 0.76 0.84 0.86 0.89 0.95 1.07 1.11 1.11 1.17 1.24 1.25 1.36 1.52 1.58 1.63 1.58 1.55 1.51 1.44 1.48 1.47 1.49 1.60 1.58 1.78 1.82 1.85 1.83 1.80 1.82 1.86 1.83 1.81 1.84 1.60 1.54 1.47 1.44 1.39
0.93 0.96 0.96 0.90 0.86 0.92 0.91 0.90 0.88 0.88 0.82 0.89 0.97 1.02 1.13 1.21 1.32 1.40 1.42 1.56 1.65 1.69 1.68 1.59 1.62 1.62 1.29 1.20 1.69 1.95 1.93 1.88 1.78 1.74 1.88 1.70 1.76 1.63 1.51 1.40 1.39 1.38 1.28
1.08 1.04 1.04 0.98 0.95 0.92 0.90 0.92 0.96 0.91 0.83 0.77 0.79 0.84 0.88 0.95 1.05 1.15 1.22 1.40 1.46 1.57 1.69 1.82 1.79 1.75 1.67 1.76 1.96 2.07 2.01 1.85 1.76 1.63 1.50 1.54 1.59 1.48 1.39 1.28 1.31 1.29 1.16

GFSMW_prec_pwat_024.txt.gz
Precipitable_Water
1.13 1.06 1.18 1.26 1.29 1.35 1.37 1.37 1.35 1.40 1.42 1.33 1.26 1.22 1.13 1.20 1.24 1.28 1.42 1.56 1.69 1.79 1.80 1.85 1.79 1.68 1.59 1.66 1.65 1.59 1.44 1.33 1.19 1.20 1.14 1.17 1.19 1.14 1.19 1.20 1.12 1.06 1.13
1.23 1.05 1.08 1.16 1.16 1.23 1.28 1.32 1.29 1.32 1.34 1.31 1.25 1.21 1.19 1.23 1.27 1.33 1.42 1.58 1.68 1.70 1.72 1.85 1.77 1.66 1.63 1.66 1.65 1.59 1.46 1.37 1.16 1.18 1.15 1.03 1.07 1.11 1.14 1.14 1.09 1.03 1.02
1.21 1.14 1.00 1.03 1.10 1.12 1.18 1.24 1.26 1.26 1.29 1.31 1.30 1.24 1.26 1.30 1.29 1.35 1.39 1.49 1.59 1.62 1.63 1.67 1.68 1.71 1.61 1.70 1.64 1.58 1.47 1.32 1.15 1.26 1.26 1.05 1.01 1.12 1.20 1.18 1.14 1.13 1.07
1.18 1.24 1.03 0.97 0.96 1.02 1.18 1.25 1.27 1.28 1.34 1.32 1.20 1.12 1.07 1.10 1.26 1.34 1.34 1.41 1.52 1.54 1.58 1.56 1.58 1.60 1.64 1.66 1.67 1.60 1.52 1.39 1.21 1.18 1.21 1.25 1.27 1.09 1.09 1.23 1.26 1.26 1.19
1.14 1.16 1.07 0.97 0.93 1.06 1.12 1.20 1.26 1.32 1.35 1.30 1.21 1.16 1.15 1.26 1.33 1.35 1.32 1.39 1.49 1.53 1.56 1.56 1.63 1.52 1.62 1.65 1.66 1.58 1.47 1.43 1.30 1.15 1.23 1.22 1.22 1.20 1.12 1.09 1.14 1.20 1.21
1.04 1.15 1.23 1.12 0.99 1.04 1.12 1.17 1.17 1.22 1.30 1.25 1.21 1.17 1.13 1.18 1.21 1.26 1.25 1.33 1.40 1.47 1.52 1.54 1.53 1.55 1.60 1.63 1.66 1.65 1.53 1.42 1.29 1.18 1.23 1.21 1.14 1.14 1.14 1.07 1.10 1.12 1.21
1.00 1.07 1.16 1.12 1.02 0.97 0.99 1.08 1.13 1.10 1.18 1.18 1.15 1.15 1.16 1.22 1.21 1.30 1.32 1.31 1.33 1.37 1.39 1.47 1.44 1.52 1.57 1.63 1.64 1.61 1.53 1.44 1.30 1.16 1.15 1.24 1.25 1.25 1.19 1.10 1.09 1.08 1.18
1.05 1.06 1.12 1.14 1.08 1.04 1.03 0.96 0.98 1.02 1.11 1.13 1.09 1.15 1.23 1.25 1.29 1.33 1.35 1.36 1.37 1.38 1.43 1.44 1.43 1.45 1.55 1.61 1.65 1.62 1.55 1.47 1.35 1.22 1.13 1.19 1.27 1.29 1.25 1.15 1.11 1.07 1.12
0.98 0.98 1.04 1.14 1.19 1.17 1.14 1.14 1.10 1.02 1.07 1.09 1.12 1.11 1.17 1.20 1.18 1.26 1.34 1.36 1.40 1.41 1.44 1.40 1.40 1.42 1.50 1.56 1.63 1.59 1.53 1.44 1.37 1.29 1.19 1.16 1.25 1.34 1.31 1.25 1.18 1.08 0.99
0.86 0.95 1.02 1.09 1.16 1.20 1.28 1.35 1.35 1.23 1.14 1.16 1.18 1.16 1.16 1.21 1.25 1.33 1.32 1.32 1.33 1.39 1.43 1.40 1.35 1.39 1.48 1.53 1.56 1.56 1.56 1.45 1.38 1.31 1.27 1.26 1.26 1.36 1.34 1.28 1.23 1.15 1.06
0.78 0.80 0.92 1.03 1.16 1.32 1.34 1.34 1.40 1.38 1.36 1.35 1.30 1.27 1.24 1.23 1.27 1.32 1.35 1.38 1.39 1.39 1.40 1.41 1.33 1.28 1.43 1.51 1.50 1.51 1.50 1.40 1.36 1.35 1.33 1.31 1.31 1.30 1.34 1.32 1.27 1.21 1.15
0.76 0.77 0.83 0.95 1.10 1.21 1.35 1.35 1.33 1.35 1.38 1.44 1.48 1.43 1.45 1.40 1.31 1.29 1.34 1.41 1.40 1.43 1.39 1.40 1.39 1.29 1.31 1.46 1.45 1.43 1.45 1.45 1.39 1.39 1.37 1.37 1.38 1.32 1.32 1.33 1.26 1.26 1.26
0.80 0.81 0.78 0.84 0.96 1.12 1.25 1.32 1.43 1.42 1.44 1.47 1.47 1.51 1.52 1.50 1.45 1.44 1.46 1.55 1.57 1.51 1.41 1.37 1.31 1.28 1.24 1.34 1.43 1.43 1.44 1.47 1.45 1.44 1.43 1.48 1.44 1.33 1.30 1.31 1.27 1.29 1.32
0.66 0.72 0.75 0.83 0.91 0.92 1.03 1.08 1.13 1.29 1.48 1.47 1.43 1.42 1.49 1.49 1.51 1.58 1.58 1.56 1.60 1.59 1.55 1.42 1.29 1.29 1.27 1.31 1.37 1.38 1.40 1.46 1.49 1.50 1.51 1.51 1.50 1.46 1.42 1.36 1.35 1.30 1.28
0.58 0.63 0.69 0.84 0.89 0.84 0.92 1.04 1.08 1.15 1.26 1.43 1.48 1.42 1.44 1.53 1.58 1.58 1.58 1.61 1.64 1.60 1.60 1.57 1.42 1.29 1.30 1.24 1.30 1.31 1.35 1.38 1.43 1.49 1.51 1.56 1.59 1.57 1.57 1.47 1.43 1.44 1.34
0.47 0.51 0.59 0.66 0.71 0.78 0.85 0.93 1.03 1.10 1.27 1.31 1.37 1.49 1.51 1.54 1.53 1.61 1.61 1.59 1.58 1.62 1.62 1.57 1.50 1.29 1.21 1.18 1.16 1.25 1.26 1.33 1.36 1.40 1.46 1.56 1.58 1.57 1.59 1.59 1.54 1.61 1.47
0.31 0.40 0.50 0.59 0.66 0.72 0.78 0.80 0.91 1.07 1.23 1.23 1.37 1.49 1.53 1.50 1.54 1.64 1.66 1.61 1.59 1.66 1.63 1.62 1.58 1.44 1.23 1.16 1.08 1.10 1.19 1.22 1.28 1.35 1.45 1.50 1.57 1.57 1.58 1.61 1.68 1.65 1.63
0.30 0.34 0.43 0.47 0.53 0.63 0.66 0.85 0.90 0.96 1.14 1.24 1.30 1.44 1.54 1.56 1.64 1.65 1.62 1.64 1.64 1.59 1.60 1.61 1.60 1.53 1.35 1.18 1.13 1.13 1.19 1.27 1.31 1.41 1.51 1.54 1.56 1.58 1.57 1.62 1.69 1.72 1.69
0.35 0.38 0.40 0.45 0.49 0.55 0.60 0.67 0.83 0.92 1.11 1.21 1.25 1.37 1.48 1.50 1.56 1.56 1.60 1.64 1.65 1.61 1.58 1.64 1.62 1.54 1.42 1.28 1.18 1.16 1.20 1.26 1.37 1.49 1.57 1.61 1.59 1.62 1.58 1.61 1.66 1.75 1.70
0.42 0.41 0.41 0.43 0.44 0.46 0.54 0.65 0.73 0.84 0.93 1.18 1.34 1.43 1.47 1.47 1.44 1.49 1.55 1.63 1.63 1.62 1.68 1.66 1.67 1.65 1.53 1.41 1.25 1.23 1.23 1.19 1.26 1.44 1.53 1.55 1.60 1.65 1.65 1.64 1.72 1.74 1.71
0.51 0.53 0.49 0.46 0.47 0.55 0.53 0.54 0.71 0.76 0.97 1.23 1.29 1.38 1.44 1.46 1.47 1.49 1.54 1.56 1.57 1.59 1.63 1.61 1.66 1.70 1.64 1.63 1.39 1.31 1.26 1.15 1.22 1.27 1.43 1.56 1.59 1.64 1.65 1.71 1.80 1.83 1.83
0.64 0.65 0.53 0.56 0.67 0.71 0.65 0.60 0.67 0.89 1.07 1.16 1.19 1.22 1.30 1.39 1.43 1.44 1.48 1.52 1.55 1.55 1.54 1.56 1.57 1.65 1.69 1.69 1.63 1.48 1.39 1.37 1.28 1.22 1.32 1.48 1.49 1.58 1.66 1.67 1.73 1.84 1.87
0.85 0.81 0.75 0.81 0.84 0.85 0.85 0.74 0.81 0.98 1.10 1.15 1.16 1.23 1.33 1.38 1.40 1.41 1.41 1.46 1.57 1.53 1.52 1.53 1.52 1.51 1.60 1.69 1.68 1.67 1.61 1.49 1.48 1.55 1.56 1.52 1.49 1.59 1.65 1.65 1.75 1.86 1.81
0.85 0.89 0.93 0.90 0.87 0.98 1.04 1.05 1.04 1.07 1.07 1.10 1.22 1.32 1.39 1.44 1.50 1.52 1.52 1.49 1.49 1.54 1.56 1.61 1.58 1.58 1.63 1.62 1.68 1.66 1.69 1.81 1.86 1.75 1.66 1.63 1.68 1.70 1.62 1.66 1.77 1.74 1.80
0.94 0.99 0.99 1.00 0.97 0.98 0.96 1.00 1.00 1.01 1.05 1.06 1.08 1.13 1.22 1.30 1.37 1.44 1.46 1.43 1.48 1.57 1.56 1.62 1.70 1.67 1.61 1.66 1.76 1.72 1.86 1.81 1.86 1.82 1.85 1.79 1.71 1.66 1.67 1.69 1.69 1.67 1.68
1.11 1.09 1.10 1.09 1.07 1.08 1.07 1.09 1.08 1.04 0.95 0.87 0.85 0.92 0.98 1.07 1.18 1.24 1.32 1.41 1.40 1.47 1.46 1.47 1.53 1.58 1.70 1.82 1.80 1.70 1.81 1.93 1.93 1.97 1.82 1.81 1.84 1.76 1.69 1.63 1.58 1.65 1.58

GFSMW_prec_pwat_030.txt.gz
Precipitable_Water
1.17 1.22 1.26 1.33 1.40 1.43 1.40 1.40 1.37 1.43 1.44 1.39 1.31 1.36 1.25 1.40 1.36 1.41 1.42 1.43 1.44 1.54 1.74 1.82 2.02 1.81 1.61 1.60 1.51 1.49 1.49 1.23 1.23 1.13 1.13 1.14 1.11 1.13 1.31 1.23 1.12 1.23 1.40
1.20 1.22 1.20 1.24 1.29 1.34 1.37 1.38 1.36 1.42 1.45 1.43 1.40 1.34 1.37 1.40 1.36 1.32 1.39 1.39 1.39 1.66 1.69 1.72 1.76 1.85 1.75 1.68 1.51 1.55 1.52 1.20 1.26 1.30 1.23 1.10 1.18 1.23 1.26 1.15 1.08 1.11 1.13
1.14 1.18 1.17 1.12 1.19 1.28 1.31 1.35 1.38 1.44 1.46 1.45 1.46 1.42 1.45 1.38 1.27 1.21 1.24 1.30 1.42 1.53 1.72 1.72 1.69 1.84 1.75 1.62 1.62 1.45 1.46 1.25 1.21 1.38 1.31 1.09 1.03 1.14 1.28 1.23 1.25 1.16 1.22
1.21 1.24 1.24 1.17 1.08 1.20 1.33 1.38 1.41 1.42 1.42 1.46 1.38 1.30 1.16 1.05 1.18 1.19 1.28 1.31 1.37 1.45 1.59 1.55 1.63 1.62 1.68 1.58 1.65 1.53 1.50 1.44 1.17 1.10 1.36 1.43 1.40 1.10 1.07 1.27 1.30 1.31 1.22
1.15 1.22 1.27 1.24 1.23 1.20 1.30 1.35 1.39 1.41 1.43 1.39 1.44 1.28 1.18 1.17 1.20 1.30 1.30 1.31 1.36 1.41 1.41 1.58 1.52 1.51 1.49 1.66 1.67 1.55 1.40 1.44 1.38 1.19 1.17 1.24 1.31 1.35 1.25 1.12 1.23 1.32 1.35
1.29 1.23 1.36 1.33 1.23 1.29 1.30 1.38 1.35 1.35 1.39 1.37 1.32 1.36 1.18 1.13 1.11 1.13 1.23 1.34 1.39 1.40 1.43 1.51 1.52 1.50 1.47 1.59 1.66 1.58 1.44 1.43 1.47 1.38 1.31 1.18 1.14 1.24 1.23 1.27 1.25 1.21 1.29
1.27 1.29 1.29 1.26 1.17 1.16 1.16 1.25 1.27 1.20 1.28 1.26 1.23 1.28 1.26 1.16 1.14 1.14 1.18 1.27 1.23 1.30 1.34 1.39 1.51 1.50 1.44 1.54 1.57 1.57 1.49 1.35 1.38 1.32 1.26 1.37 1.44 1.47 1.37 1.27 1.25 1.20 1.28
1.20 1.28 1.28 1.20 1.18 1.16 1.13 1.10 1.15 1.09 1.16 1.19 1.22 1.20 1.33 1.22 1.08 1.22 1.18 1.21 1.25 1.28 1.44 1.44 1.47 1.44 1.47 1.44 1.67 1.56 1.56 1.53 1.33 1.27 1.22 1.28 1.38 1.42 1.33 1.24 1.20 1.13 1.19
1.02 1.21 1.24 1.22 1.15 1.15 1.11 1.04 1.05 1.09 1.13 1.14 1.21 1.16 1.15 1.21 1.01 1.12 1.22 1.24 1.24 1.31 1.37 1.43 1.41 1.41 1.43 1.40 1.45 1.55 1.48 1.51 1.47 1.32 1.22 1.20 1.29 1.38 1.39 1.33 1.24 1.15 1.06
0.94 1.15 1.23 1.21 1.17 1.16 1.15 1.09 1.07 1.02 1.00 1.09 1.12 1.13 1.05 1.09 1.10 1.00 1.10 1.15 1.26 1.20 1.42 1.40 1.41 1.44 1.43 1.43 1.44 1.46 1.45 1.50 1.51 1.44 1.31 1.14 1.14 1.26 1.37 1.33 1.30 1.20 1.08
0.95 1.11 1.25 1.20 1.22 1.20 1.24 1.09 1.07 1.07 1.05 1.04 1.02 1.04 1.12 1.10 1.09 1.14 1.11 1.19 1.22 1.39 1.27 1.53 1.43 1.40 1.40 1.36 1.34 1.37 1.41 1.38 1.45 1.48 1.40 1.29 1.18 1.15 1.29 1.32 1.31 1.24 1.20
0.94 1.07 1.16 1.18 1.28 1.20 1.25 1.17 1.13 1.14 1.20 1.22 1.18 1.11 1.14 1.19 1.14 1.09 1.13 1.18 1.26 1.26 1.41 1.43 1.48 1.43 1.35 1.34 1.30 1.19 1.27 1.37 1.37 1.40 1.40 1.37 1.33 1.22 1.28 1.36 1.25 1.22 1.24
0.76 0.98 1.17 1.15 1.19 1.17 1.23 1.22 1.27 1.23 1.38 1.48 1.45 1.36 1.28 1.25 1.24 1.23 1.15 1.25 1.25 1.34 1.31 1.41 1.41 1.40 1.36 1.30 1.32 1.29 1.22 1.23 1.43 1.46 1.44 1.40 1.36 1.26 1.20 1.25 1.27 1.25 1.29
0.71 0.91 1.07 1.22 1.21 1.19 1.22 1.27 1.34 1.45 1.50 1.57 1.57 1.49 1.49 1.44 1.43 1.40 1.36 1.28 1.34 1.28 1.32 1.34 1.43 1.48 1.43 1.39 1.32 1.32 1.26 1.20 1.23 1.43 1.53 1.48 1.38 1.31 1.28 1.18 1.15 1.23 1.22
0.76 0.90 1.02 1.22 1.25 1.18 1.20 1.30 1.41 1.49 1.56 1.55 1.59 1.58 1.66 1.67 1.59 1.57 1.54 1.54 1.44 1.38 1.40 1.37 1.41 1.49 1.53 1.51 1.44 1.32 1.27 1.24 1.19 1.22 1.41 1.49 1.47 1.38 1.34 1.25 1.19 1.13 1.21
0.79 0.87 0.96 1.11 1.21 1.36 1.20 1.21 1.28 1.41 1.53 1.53 1.48 1.55 1.59 1.66 1.74 1.73 1.67 1.64 1.59 1.56 1.55 1.45 1.46 1.47 1.55 1.61 1.58 1.52 1.34 1.27 1.23 1.20 1.26 1.41 1.43 1.38 1.36 1.36 1.36 1.27 1.13
0.63 0.69 0.83 0.91 0.98 1.10 1.24 1.15 1.19 1.24 1.37 1.40 1.40 1.43 1.47 1.51 1.62 1.74 1.76 1.65 1.63 1.65 1.58 1.60 1.58 1.49 1.53 1.57 1.61 1.62 1.58 1.49 1.36 1.27 1.25 1.26 1.31 1.36 1.35 1.36 1.37 1.34 1.33
0.56 0.58 0.61 0.69 0.74 0.86 1.05 1.15 1.25 1.23 1.15 1.28 1.37 1.51 1.51 1.49 1.60 1.62 1.69 1.75 1.73 1.63 1.64 1.65 1.66 1.64 1.62 1.62 1.61 1.64 1.66 1.62 1.57 1.49 1.38 1.26 1.25 1.34 1.32 1.28 1.28 1.30 1.33
0.55 0.58 0.59 0.58 0.63 0.73 0.90 0.98 0.98 1.10 1.07 1.07 1.19 1.27 1.41 1.45 1.53 1.55 1.53 1.69 1.79 1.76 1.73 1.71 1.72 1.68 1.67 1.77 1.73 1.74 1.73 1.65 1.59 1.62 1.57 1.50 1.43 1.42 1.42 1.33 1.19 1.21 1.31
0.86 0.82 0.79 0.71 0.62 0.68 0.70 0.78 0.98 1.07 1.12 1.13 1.15 1.25 1.25 1.29 1.32 1.51 1.57 1.62 1.75 1.79 1.82 1.68 1.71 1.76 1.73 1.85 1.84 1.86 1.86 1.68 1.62 1.71 1.68 1.63 1.59 1.58 1.50 1.41 1.36 1.28 1.26
0.87 0.85 0.79 0.72 0.75 0.79 0.75 0.76 0.75 0.83 0.99 1.06 1.12 1.18 1.26 1.24 1.34 1.49 1.68 1.67 1.70 1.77 1.74 1.71 1.79 1.78 1.82 1.85 1.90 1.93 1.91 1.76 1.71 1.66 1.66 1.76 1.74 1.69 1.62 1.59 1.53 1.40 1.55
0.95 0.87 0.79 0.72 0.81 0.80 0.70 0.64 0.66 0.75 0.88 1.00 1.04 1.10 1.17 1.30 1.41 1.51 1.64 1.65 1.67 1.67 1.67 1.71 1.73 1.81 1.86 1.88 1.90 1.88 1.89 1.95 1.90 1.75 1.75 1.81 1.88 1.91 1.84 1.73 1.69 1.72 1.75
1.08 1.11 0.99 0.95 1.03 1.00 0.96 0.81 0.87 0.93 0.85 1.02 0.98 1.04 1.16 1.27 1.39 1.56 1.58 1.56 1.62 1.64 1.64 1.66 1.66 1.75 1.91 1.91 1.93 1.91 1.90 1.90 1.89 1.93 1.95 1.92 1.95 1.94 1.96 1.96 1.93 1.89 1.88
1.22 1.08 1.08 1.09 1.25 1.30 1.27 1.15 1.16 1.10 1.02 0.99 1.06 1.11 1.16 1.25 1.39 1.56 1.68 1.66 1.63 1.62 1.63 1.65 1.64 1.72 1.74 1.77 1.85 1.82 1.81 1.84 1.87 1.89 1.97 2.04 2.05 1.95 1.97 1.96 1.99 2.03 2.01
1.29 1.27 1.25 1.26 1.25 1.26 1.23 1.23 1.22 1.25 1.14 1.10 1.13 1.17 1.25 1.34 1.42 1.51 1.52 1.69 1.76 1.71 1.63 1.67 1.71 1.65 1.64 1.76 1.81 1.81 1.82 1.81 1.87 1.94 1.99 1.98 1.99 2.00 1.92 1.89 1.88 1.94 1.97
1.07 1.22 1.33 1.28 1.24 1.20 1.16 1.20 1.20 1.24 1.25 1.23 1.26 1.29 1.31 1.39 1.42 1.48 1.52 1.69 1.78 1.84 1.82 1.79 1.78 1.77 1.67 1.60 1.59 1.62 1.68 1.70 1.70 1.60 1.54 1.53 1.53 1.50 1.55 1.62 1.64 1.73 1.81

GFSMW_prec_pwat_033.txt.gz
Precipitable_Water
1.16 1.27 1.33 1.35 1.36 1.38 1.31 1.31 1.28 1.32 1.34 1.32 1.17 1.16 1.10 1.26 1.37 1.47 1.51 1.39 1.41 1.49 1.62 1.74 1.85 1.88 1.57 1.59 1.53 1.41 1.32 1.15 1.28 1.20 1.16 1.04 1.14 1.22 1.25 1.32 1.23 1.23 1.28
1.21 1.18 1.21 1.22 1.26 1.28 1.28 1.30 1.29 1.27 1.24 1.27 1.22 1.22 1.22 1.28 1.31 1.34 1.42 1.38 1.46 1.55 1.59 1.66 1.82 1.78 1.68 1.61 1.48 1.50 1.31 1.17 1.29 1.18 1.20 1.02 1.08 1.27 1.27 1.30 1.26 1.31 1.37
1.22 1.18 1.18 1.13 1.18 1.20 1.21 1.24 1.27 1.27 1.24 1.27 1.30 1.27 1.35 1.31 1.28 1.24 1.22 1.37 1.44 1.54 1.53 1.60 1.65 1.75 1.77 1.58 1.51 1.45 1.36 1.08 1.26 1.39 1.29 1.04 0.94 1.11 1.26 1.26 1.21 1.28 1.30
1.27 1.24 1.20 1.23 1.13 1.15 1.24 1.26 1.30 1.33 1.29 1.31 1.28 1.19 1.03 1.02 1.11 1.12 1.14 1.30 1.42 1.51 1.44 1.46 1.59 1.63 1.69 1.52 1.55 1.41 1.42 1.29 1.14 1.28 1.40 1.37 1.37 1.04 1.02 1.25 1.28 1.35 1.27
1.36 1.31 1.25 1.24 1.24 1.23 1.25 1.26 1.30 1.33 1.33 1.30 1.27 1.19 1.09 1.15 1.17 1.18 1.18 1.24 1.31 1.37 1.37 1.51 1.51 1.50 1.54 1.54 1.58 1.51 1.40 1.44 1.26 1.12 1.18 1.30 1.37 1.35 1.25 1.06 1.17 1.30 1.32
1.28 1.32 1.30 1.38 1.27 1.29 1.28 1.31 1.29 1.29 1.31 1.28 1.26 1.21 1.13 1.09 1.13 1.18 1.16 1.23 1.26 1.29 1.37 1.43 1.48 1.48 1.40 1.44 1.57 1.54 1.38 1.39 1.44 1.27 1.26 1.22 1.20 1.20 1.21 1.17 1.20 1.16 1.24
1.12 1.29 1.29 1.22 1.30 1.24 1.25 1.24 1.26 1.23 1.29 1.24 1.19 1.19 1.15 1.14 1.07 1.07 1.12 1.18 1.20 1.21 1.29 1.42 1.42 1.46 1.40 1.40 1.51 1.52 1.46 1.34 1.37 1.35 1.24 1.34 1.33 1.38 1.32 1.27 1.19 1.14 1.24
1.14 1.20 1.25 1.27 1.26 1.18 1.16 1.19 1.20 1.17 1.22 1.21 1.12 1.13 1.26 1.20 1.14 1.13 1.09 1.12 1.19 1.25 1.34 1.38 1.48 1.40 1.46 1.37 1.40 1.45 1.47 1.44 1.28 1.31 1.27 1.26 1.36 1.41 1.35 1.24 1.17 1.08 1.16
1.15 1.18 1.24 1.31 1.25 1.19 1.13 1.11 1.13 1.17 1.21 1.20 1.18 1.12 1.13 1.21 1.07 1.02 1.13 1.16 1.21 1.25 1.31 1.41 1.44 1.46 1.44 1.40 1.34 1.41 1.43 1.49 1.41 1.20 1.20 1.19 1.28 1.34 1.34 1.26 1.27 1.13 1.02
1.09 1.15 1.22 1.32 1.23 1.17 1.14 1.17 1.16 1.12 1.15 1.20 1.18 1.11 0.99 1.07 1.14 1.08 0.99 1.13 1.12 1.23 1.27 1.28 1.35 1.40 1.42 1.39 1.32 1.33 1.47 1.45 1.44 1.36 1.24 1.11 1.20 1.27 1.34 1.31 1.24 1.23 1.13
1.07 1.12 1.25 1.31 1.29 1.14 1.16 1.15 1.12 1.12 1.16 1.14 1.10 1.06 1.01 0.99 1.13 1.13 1.05 1.08 1.25 1.23 1.22 1.30 1.37 1.37 1.41 1.47 1.37 1.20 1.29 1.39 1.40 1.44 1.38 1.27 1.15 1.17 1.26 1.33 1.29 1.18 1.12
1.02 1.13 1.20 1.28 1.30 1.13 1.11 1.16 1.09 1.02 1.04 1.10 1.10 1.10 1.10 1.07 1.03 1.15 1.14 1.05 1.09 1.20 1.26 1.29 1.39 1.48 1.42 1.39 1.36 1.21 1.16 1.22 1.31 1.38 1.41 1.34 1.36 1.17 1.15 1.25 1.23 1.22 1.22
0.97 1.07 1.17 1.26 1.27 1.10 1.06 1.18 1.09 1.07 1.03 1.10 1.14 1.11 1.13 1.16 1.11 1.11 1.14 1.16 1.05 1.10 1.16 1.37 1.36 1.32 1.38 1.39 1.36 1.29 1.16 1.14 1.16 1.28 1.35 1.37 1.37 1.25 1.21 1.14 1.22 1.24 1.22
0.95 1.06 1.13 1.23 1.25 1.11 0.99 1.19 1.24 1.24 1.25 1.25 1.22 1.16 1.16 1.19 1.24 1.23 1.20 1.17 1.20 1.16 1.22 1.21 1.35 1.44 1.41 1.40 1.41 1.35 1.26 1.17 1.14 1.20 1.27 1.34 1.35 1.27 1.24 1.20 1.12 1.19 1.16
0.82 1.03 1.07 1.15 1.23 1.23 1.05 1.19 1.31 1.34 1.33 1.34 1.37 1.35 1.37 1.38 1.36 1.32 1.30 1.28 1.21 1.22 1.23 1.23 1.26 1.36 1.44 1.46 1.43 1.42 1.33 1.26 1.20 1.17 1.18 1.25 1.27 1.31 1.30 1.23 1.16 1.06 1.09
0.76 0.99 1.11 1.15 1.20 1.24 1.23 1.06 1.25 1.36 1.47 1.45 1.40 1.51 1.53 1.57 1.57 1.52 1.44 1.41 1.36 1.28 1.30 1.25 1.23 1.30 1.41 1.49 1.50 1.53 1.49 1.48 1.38 1.24 1.19 1.22 1.24 1.25 1.25 1.27 1.27 1.22 1.03
0.72 0.89 1.05 1.27 1.33 1.41 1.44 1.33 1.20 1.31 1.38 1.39 1.51 1.55 1.59 1.57 1.56 1.60 1.62 1.58 1.51 1.53 1.42 1.38 1.39 1.35 1.41 1.50 1.58 1.62 1.63 1.60 1.57 1.53 1.47 1.40 1.36 1.29 1.26 1.28 1.31 1.31 1.29
0.68 0.75 0.83 0.92 1.13 1.38 1.58 1.56 1.40 1.30 1.27 1.29 1.37 1.51 1.56 1.54 1.56 1.60 1.61 1.67 1.71 1.66 1.57 1.53 1.53 1.54 1.51 1.56 1.62 1.69 1.71 1.68 1.67 1.69 1.68 1.60 1.53 1.54 1.49 1.35 1.30 1.33 1.31
0.79 0.80 0.84 0.90 0.93 0.99 1.20 1.60 1.55 1.37 1.27 1.26 1.30 1.34 1.41 1.45 1.51 1.50 1.54 1.64 1.68 1.69 1.75 1.73 1.68 1.63 1.63 1.72 1.78 1.81 1.78 1.73 1.73 1.82 1.83 1.80 1.73 1.74 1.71 1.63 1.52 1.42 1.36
0.86 0.82 0.82 0.87 0.91 0.93 0.96 1.08 1.19 1.32 1.29 1.27 1.30 1.39 1.44 1.49 1.45 1.48 1.52 1.59 1.66 1.67 1.71 1.78 1.83 1.76 1.67 1.81 1.87 1.91 1.89 1.76 1.79 1.88 1.87 1.87 1.86 1.89 1.90 1.82 1.72 1.56 1.50
0.90 0.86 0.86 0.86 0.89 1.00 0.95 0.93 1.04 1.04 1.14 1.27 1.30 1.31 1.32 1.34 1.42 1.45 1.51 1.54 1.57 1.67 1.71 1.71 1.80 1.86 1.85 1.85 1.92 1.96 1.92 1.86 1.84 1.79 1.78 1.84 1.89 1.96 1.98 1.98 1.93 1.76 1.89
1.00 0.96 0.85 0.87 0.91 0.87 0.88 0.84 0.86 1.01 1.12 1.22 1.28 1.25 1.24 1.27 1.34 1.37 1.45 1.52 1.56 1.55 1.66 1.67 1.69 1.82 1.87 1.93 1.95 1.96 1.99 2.03 1.87 1.80 1.88 1.89 1.89 1.87 1.90 1.96 1.95 1.96 2.00
1.15 1.14 1.02 1.01 1.17 1.17 1.04 0.83 0.92 1.01 1.07 0.99 0.95 1.11 1.21 1.22 1.28 1.29 1.34 1.43 1.56 1.57 1.65 1.65 1.62 1.67 1.80 1.89 1.97 1.97 1.97 1.98 1.93 1.93 1.92 1.94 1.93 1.89 1.87 1.88 1.88 1.96 2.02
1.16 1.19 1.15 1.24 1.26 1.32 1.24 1.12 1.05 1.01 1.01 0.90 0.96 1.00 1.06 1.15 1.24 1.29 1.34 1.38 1.46 1.60 1.69 1.65 1.62 1.63 1.72 1.83 1.91 1.90 1.92 1.95 1.94 1.97 1.99 2.00 1.98 1.97 1.91 1.85 1.82 1.83 1.90
1.07 1.12 1.14 1.29 1.28 1.35 1.38 1.33 1.24 1.20 1.08 1.07 1.14 1.13 1.13 1.15 1.18 1.29 1.39 1.45 1.61 1.70 1.68 1.73 1.74 1.68 1.66 1.70 1.74 1.77 1.79 1.80 1.78 1.74 1.72 1.68 1.69 1.65 1.66 1.72 1.78 1.75 1.75
0.91 0.83 0.94 1.20 1.29 1.27 1.25 1.27 1.31 1.31 1.28 1.24 1.24 1.26 1.23 1.25 1.28 1.29 1.35 1.53 1.67 1.78 1.81 1.82 1.81 1.73 1.71 1.68 1.70 1.70 1.63 1.58 1.54 1.46 1.38 1.40 1.47 1.49 1.55 1.59 1.66 1.70 1.65